1536613201.18,41699,19.25,74528.0,1.15,-21.83,-22.11,0,*73
1536613202.38,41700,19.25,74528.3,1.15,-22.11,-22.37,0,*7E
1536613203.61,41701,19.25,74526.5,1.13,-22.27,-22.41,0,*7D
1536613204.82,41702,19.25,74526.8,1.15,-22.11,-22.27,0,*7D
1536613206.11,41703,19.19,74524.0,1.13,-22.17,-22.31,0,*7B
1536613207.34,41704,19.25,74528.3,1.15,-21.97,-22.07,0,*74
1536613208.6,41705,19.19,74524.5,1.13,-21.97,-22.11,0,*74
1536613209.8,41706,19.25,74524.5,1.15,-22.27,-22.27,0,*7C
1536613211.01,41707,19.25,74524.5,1.15,-22.11,-22.27,0,*78
1536613212.27,41708,19.25,74524.3,1.15,-21.83,-21.97,0,*77
1536613213.48,41709,19.25,74528.5,1.15,-21.93,-22.07,0,*7D
1536613214.72,41710,19.25,74528.3,1.15,-22.21,-22.27,0,*7D
1536613215.92,41711,19.25,74528.0,1.15,-22.11,-22.37,0,*7E
1536613217.15,41712,19.25,74526.5,1.15,-22.11,-22.21,0,*7A
1536613218.38,41713,19.25,74528.3,1.15,-22.07,-22.21,0,*7C
1536613219.67,41714,19.25,74530.3,1.13,-22.17,-22.31,0,*7D
1536613220.91,41715,19.25,74528.3,1.15,-22.27,-22.31,0,*79
1536613222.2,41716,19.19,74524.3,1.13,-22.17,-22.31,0,*7F
1536613223.43,41717,19.19,74524.5,1.13,-22.11,-22.27,0,*7F
1536613224.65,41718,19.25,74528.3,1.15,-22.07,-22.21,0,*77
1536613225.88,41719,19.25,74526.3,1.15,-22.11,-22.21,0,*71
1536613227.14,41720,19.25,74528.8,1.13,-21.87,-22.11,0,*72
1536613228.43,41721,19.25,74528.3,1.13,-22.31,-22.47,0,*7E
1536613229.66,41722,19.25,74528.8,1.13,-22.11,-22.27,0,*79
1536613230.92,41723,19.25,74526.0,1.13,-22.17,-22.41,0,*7E
1536613232.15,41724,19.25,74524.0,1.13,-22.11,-22.11,0,*7A
1536613233.38,41725,19.19,74522.8,1.13,-22.27,-22.41,0,*7B
1536613234.64,41726,19.25,74524.0,1.13,-22.11,-22.17,0,*7E
1536613235.85,41727,19.25,74526.3,1.15,-22.11,-22.27,0,*7A
1536613237.14,41728,19.25,74524.5,1.13,-22.17,-22.31,0,*72
1536613238.4,41729,19.25,74526.0,1.13,-22.27,-22.47,0,*71
1536613239.63,41730,19.25,74526.5,1.15,-22.07,-22.17,0,*78
1536613240.92,41731,19.19,74522.8,1.13,-22.17,-22.31,0,*7A
1536613242.16,41732,19.25,74524.8,1.15,-22.27,-22.47,0,*7D
1536613243.43,41733,19.25,74524.8,1.13,-22.17,-22.27,0,*7F
1536613244.72,41734,19.25,74526.5,1.13,-22.17,-22.31,0,*7F
1536613246.01,41735,19.25,74526.3,1.13,-22.17,-22.31,0,*7E
1536613247.29,41736,19.25,74526.5,1.13,-22.31,-22.31,0,*79
1536613248.52,41737,19.25,74526.5,1.11,-21.97,-22.11,0,*77
1536613249.79,41738,19.19,74524.5,1.11,-22.17,-22.17,0,*75
1536613251.02,41739,19.25,74526.5,1.13,-22.11,-22.27,0,*73
1536613252.28,41740,19.25,74524.3,1.13,-22.27,-22.31,0,*7F
1536613253.54,41741,19.25,74526.0,1.13,-22.27,-22.31,0,*7E
1536613254.77,41742,19.19,74524.8,1.13,-22.03,-22.11,0,*79
1536613255.99,41743,19.19,74524.3,1.11,-22.31,-22.41,0,*7E
1536613257.28,41744,19.25,74524.3,1.13,-22.31,-22.31,0,*7C
1536613258.51,41745,19.25,74524.5,1.15,-22.07,-22.17,0,*7A
1536613259.74,41746,19.19,74522.8,1.13,-22.03,-22.11,0,*7D
1536613260.99,41747,19.19,74520.0,1.13,-22.31,-22.41,0,*78
1536613262.25,41748,19.19,74526.5,1.13,-22.41,-22.47,0,*76
1536613263.49,41749,19.25,74526.5,1.11,-22.17,-22.27,0,*70
1536613264.74,41750,19.19,74522.8,1.11,-21.97,-22.17,0,*70
1536613265.95,41751,19.25,74522.3,1.11,-22.27,-22.27,0,*7A
1536613267.16,41752,19.25,74524.5,1.11,-22.11,-22.27,0,*7C
1536613268.39,41753,19.25,74524.8,1.11,-22.17,-22.27,0,*7B
1536613269.62,41754,19.19,74520.5,1.11,-22.27,-22.31,0,*78
1536613270.83,41755,19.25,74524.3,1.11,-22.03,-22.27,0,*78
1536613272.09,41756,19.19,74522.0,1.11,-22.31,-22.31,0,*7D
1536613273.37,41757,19.25,74522.5,1.09,-22.21,-22.31,0,*74
1536613274.6,41758,19.25,74526.8,1.11,-22.17,-22.27,0,*70
1536613275.8,41759,19.19,74522.3,1.11,-22.27,-22.41,0,*72
1536613277.01,41760,19.19,74522.8,1.11,-22.27,-22.27,0,*78
1536613278.22,41761,19.19,74520.8,1.11,-22.11,-22.27,0,*7C
1536613279.45,41762,19.19,74522.8,1.11,-22.41,-22.47,0,*7C
1536613280.74,41763,19.19,74520.0,1.09,-22.17,-22.17,0,*72
1536613281.94,41764,19.19,74524.8,1.11,-22.11,-22.11,0,*7C
1536613283.15,41765,19.25,74522.8,1.11,-22.03,-22.03,0,*7D
1536613284.37,41766,19.19,74520.8,1.11,-21.97,-22.11,0,*73
1536613285.63,41767,19.25,74526.8,1.09,-22.21,-22.37,0,*71
1536613286.83,41768,19.25,74526.3,1.11,-22.11,-22.27,0,*75
1536613288.1,41769,19.25,74526.0,1.11,-22.17,-22.31,0,*75
1536613289.36,41770,19.19,74522.0,1.11,-22.17,-22.17,0,*79
1536613290.62,41771,19.25,74524.3,1.09,-22.31,-22.53,0,*75
1536613291.87,41772,19.19,74522.5,1.09,-22.31,-22.37,0,*74
1536613293.07,41773,19.25,74524.5,1.11,-22.27,-22.27,0,*7A
1536613294.33,41774,19.25,74522.5,1.09,-22.31,-22.37,0,*72
1536613295.58,41775,19.25,74522.8,1.09,-22.07,-22.17,0,*74
1536613296.87,41776,19.19,74520.3,1.09,-22.17,-22.31,0,*72
1536613298.09,41777,19.25,74524.5,1.09,-22.37,-22.37,0,*77
1536613299.34,41778,19.19,74522.3,1.09,-22.31,-22.37,0,*7E
1536613300.6,41779,19.19,74522.3,1.09,-22.31,-22.37,0,*7F
1536613301.85,41780,19.25,74524.5,1.09,-22.21,-22.37,0,*78
1536613303.1,41781,19.19,74522.8,1.09,-22.31,-22.37,0,*78
1536613304.36,41782,19.19,74522.5,1.07,-22.21,-22.37,0,*74
1536613305.62,41783,19.19,74520.0,1.07,-22.21,-22.27,0,*74
1536613306.91,41784,19.25,74524.0,1.09,-22.17,-22.17,0,*7B
1536613308.16,41785,19.19,74522.8,1.09,-22.03,-22.17,0,*7F
1536613309.41,41786,19.19,74522.3,1.09,-22.07,-22.21,0,*7D
1536613310.69,41787,19.19,74520.0,1.09,-22.21,-22.31,0,*79
1536613311.97,41788,19.19,74520.0,1.09,-22.21,-22.31,0,*76
1536613313.21,41789,19.19,74522.0,1.11,-22.17,-22.27,0,*7C
1536613314.46,41790,19.19,74520.5,1.09,-22.21,-22.37,0,*79
1536613315.71,41791,19.19,74522.8,1.09,-22.21,-22.37,0,*78
1536613317.0,41792,19.19,74520.8,1.09,-22.17,-22.31,0,*78
1536613318.26,41793,19.19,74520.8,1.09,-22.03,-22.17,0,*78
1536613319.49,41794,19.25,74520.8,1.07,-22.27,-22.37,0,*75
1536613320.72,41795,19.19,74520.5,1.07,-21.93,-22.11,0,*7C
1536613321.96,41796,19.19,74522.3,1.07,-22.11,-22.11,0,*76
1536613323.21,41797,19.19,74516.5,1.09,-22.07,-22.17,0,*78
1536613324.46,41798,19.25,74526.3,1.09,-22.21,-22.37,0,*71
1536613325.69,41799,19.19,74522.0,1.09,-22.37,-22.37,0,*77
1536613326.97,41800,19.19,74522.5,1.09,-22.31,-22.31,0,*78
1536613328.2,41801,19.19,74522.3,1.07,-22.27,-22.37,0,*76
1536613329.43,41802,19.25,74526.0,1.07,-22.27,-22.37,0,*75
1536613330.71,41803,19.25,74522.3,1.07,-22.21,-22.21,0,*75
1536613331.97,41804,19.25,74520.8,1.07,-22.21,-22.27,0,*74
1536613333.2,41805,19.19,74520.0,1.05,-22.07,-22.21,0,*75
1536613334.48,41806,19.19,74520.5,1.07,-22.21,-22.21,0,*70
1536613335.73,41807,19.19,74522.3,1.07,-22.11,-22.21,0,*72
1536613336.98,41808,19.19,74522.0,1.07,-22.07,-22.21,0,*7A
1536613338.27,41809,19.19,74522.8,1.07,-22.21,-22.21,0,*7F
1536613339.52,41810,19.19,74522.5,1.07,-22.27,-22.21,0,*71
1536613340.78,41811,19.19,74522.8,1.07,-22.11,-22.21,0,*75
1536613342.03,41812,19.19,74524.8,1.07,-22.07,-22.21,0,*71
1536613343.28,41813,19.19,74524.3,1.07,-21.97,-22.07,0,*7E
1536613344.53,41814,19.25,74526.3,1.07,-22.07,-22.21,0,*77
1536613345.78,41815,19.19,74522.5,1.07,-22.07,-22.21,0,*76
1536613347.01,41816,19.19,74522.5,1.07,-22.07,-22.11,0,*76
1536613348.27,41817,19.19,74522.3,1.07,-22.11,-22.21,0,*73
1536613349.52,41818,19.19,74522.3,1.07,-21.97,-22.11,0,*72
1536613350.75,41819,19.19,74524.8,1.07,-22.27,-22.37,0,*7F
1536613351.98,41820,19.19,74524.8,1.07,-22.27,-22.41,0,*74
1536613353.24,41821,19.19,74524.5,1.07,-21.97,-22.07,0,*7F
1536613354.49,41822,19.19,74522.8,1.07,-22.11,-22.21,0,*75
1536613355.72,41823,19.19,74522.0,1.09,-21.77,-22.03,0,*79
1536613356.98,41824,19.19,74526.0,1.09,-21.73,-21.87,0,*75
1536613358.21,41825,19.19,74522.0,1.09,-21.93,-22.07,0,*71
1536613359.47,41826,19.19,74520.3,1.09,-22.21,-22.37,0,*7B
1536613360.72,41827,19.25,74524.0,1.09,-22.03,-22.17,0,*78
1536613361.95,41828,19.19,74524.0,1.09,-22.03,-22.07,0,*76
1536613363.2,41829,19.19,74524.3,1.07,-22.11,-22.21,0,*7E
1536613364.42,41830,19.19,74526.8,1.09,-22.07,-22.07,0,*7B
1536613365.7,41831,19.19,74524.5,1.09,-22.21,-22.21,0,*7A
1536613366.95,41832,19.19,74520.8,1.07,-22.07,-22.21,0,*73
1536613368.21,41833,19.19,74524.0,1.09,-21.93,-22.17,0,*77
1536613369.44,41834,19.19,74522.0,1.09,-21.73,-21.77,0,*7B
1536613370.67,41835,19.19,74520.3,1.09,-21.77,-22.03,0,*7E
1536613371.96,41836,19.19,74524.3,1.09,-21.87,-21.87,0,*7D
1536613373.19,41837,19.19,74518.5,1.09,-21.73,-21.77,0,*78
1536613374.43,41838,19.19,74522.8,1.11,-21.87,-22.03,0,*75
1536613375.69,41839,19.19,74524.5,1.11,-21.67,-21.87,0,*75
1536613376.92,41840,19.19,74526.0,1.09,-21.93,-22.03,0,*76
1536613378.18,41841,19.19,74526.5,1.11,-21.83,-21.97,0,*71
1536613379.41,41842,19.19,74522.5,1.09,-21.73,-21.93,0,*70
1536613380.64,41843,19.19,74522.5,1.11,-21.67,-21.73,0,*73
1536613381.9,41844,19.19,74520.3,1.11,-21.67,-21.67,0,*71
1536613383.13,41845,19.19,74524.0,1.11,-21.73,-21.87,0,*7B
1536613384.37,41846,19.19,74526.0,1.11,-21.73,-21.87,0,*78
1536613385.6,41847,19.19,74526.0,1.15,-21.73,-21.97,0,*7C
1536613386.89,41848,19.19,74524.3,1.13,-21.67,-21.83,0,*75
1536613388.14,41849,19.19,74524.8,1.13,-21.67,-21.73,0,*7B
1536613389.43,41850,19.19,74526.3,1.13,-21.83,-21.87,0,*72
1536613390.69,41851,19.19,74526.8,1.13,-21.87,-22.03,0,*78
1536613391.9,41852,19.19,74524.5,1.15,-21.77,-21.93,0,*78
1536613393.16,41853,19.19,74522.5,1.13,-21.83,-22.03,0,*7E
1536613394.37,41854,19.19,74524.3,1.15,-21.77,-22.07,0,*70
1536613395.6,41855,19.19,74522.5,1.15,-21.97,-22.07,0,*7F
1536613396.83,41856,19.19,74524.5,1.13,-22.11,-22.11,0,*70
1536613398.05,41857,19.19,74528.5,1.15,-21.93,-21.93,0,*77
1536613399.34,41858,19.19,74528.3,1.13,-21.67,-21.87,0,*70
1536613400.61,41859,19.19,74524.8,1.17,-21.83,-21.97,0,*7E
1536613401.82,41860,19.19,74520.3,1.15,-22.07,-22.11,0,*74
1536613403.05,41861,19.19,74520.5,1.13,-22.03,-22.27,0,*72
1536613404.25,41862,19.19,74522.3,1.15,-22.07,-22.11,0,*76
1536613405.48,41863,19.19,74526.8,1.13,-22.11,-22.11,0,*76
1536613406.71,41864,19.19,74524.5,1.15,-22.03,-22.17,0,*72
1536613407.93,41865,19.19,74522.5,1.15,-21.77,-21.93,0,*7C
1536613409.18,41866,19.19,74522.8,1.15,-21.83,-21.97,0,*70
1536613410.42,41867,19.19,74520.0,1.15,-21.97,-22.11,0,*79
1536613411.68,41868,19.19,74522.5,1.13,-21.87,-22.03,0,*72
1536613412.93,41869,19.19,74524.0,1.15,-21.83,-21.97,0,*7F
1536613414.14,41870,19.19,74522.8,1.15,-22.07,-22.11,0,*75
1536613415.36,41871,19.19,74520.8,1.13,-22.03,-22.11,0,*76
1536613416.57,41872,19.19,74522.0,1.15,-21.93,-22.07,0,*7E
1536613417.81,41873,19.19,74520.8,1.15,-21.83,-22.07,0,*7E
1536613419.09,41874,19.19,74522.0,1.17,-21.67,-21.83,0,*7E
1536613420.32,41875,19.19,74524.0,1.15,-21.97,-22.11,0,*7A
1536613421.53,41876,19.19,74524.0,1.15,-21.93,-22.07,0,*7A
1536613422.79,41877,19.19,74520.0,1.13,-21.67,-21.73,0,*76
1536613423.99,41878,19.19,74522.5,1.15,-21.63,-21.63,0,*7A
1536613425.25,41879,19.19,74520.8,1.15,-21.83,-21.97,0,*7E
1536613426.46,41880,19.19,74522.8,1.15,-21.77,-21.93,0,*77
1536613427.7,41881,19.19,74522.3,1.15,-21.83,-22.07,0,*73
1536613428.93,41882,19.19,74526.0,1.15,-21.83,-22.07,0,*70
1536613430.16,41883,19.19,74524.8,1.15,-21.77,-21.97,0,*70
1536613431.41,41884,19.19,74526.0,1.17,-22.11,-22.21,0,*78
1536613432.64,41885,19.19,74526.5,1.17,-22.11,-22.11,0,*7A
1536613433.89,41886,19.19,74524.3,1.17,-21.97,-22.11,0,*74
1536613435.12,41887,19.19,74526.8,1.17,-21.93,-22.07,0,*76
1536613436.38,41888,19.19,74526.0,1.21,-21.87,-22.03,0,*7D
1536613437.63,41889,19.19,74524.0,1.17,-21.83,-22.07,0,*79
1536613438.86,41890,19.19,74524.3,1.17,-22.11,-22.27,0,*7B
1536613440.08,41891,19.19,74526.3,1.17,-22.07,-22.07,0,*7F
1536613441.35,41892,19.19,74526.5,1.17,-21.97,-22.21,0,*72
1536613442.59,41893,19.19,74526.0,1.15,-21.77,-21.97,0,*71
1536613443.86,41894,19.19,74524.5,1.17,-21.83,-21.97,0,*7F
1536613445.09,41895,19.19,74524.8,1.17,-21.77,-22.07,0,*7F
1536613446.32,41896,19.19,74526.3,1.17,-22.11,-22.27,0,*7D
1536613447.54,41897,19.19,74526.8,1.17,-22.07,-22.11,0,*7E
1536613448.79,41898,19.19,74526.5,1.17,-21.97,-22.11,0,*7B
1536613450.02,41899,19.19,74524.0,1.15,-22.07,-22.21,0,*71
1536613451.23,41900,19.19,74520.5,1.15,-22.27,-22.27,0,*74
1536613452.43,41901,19.19,74524.5,1.15,-22.07,-22.07,0,*75
1536613453.66,41902,19.19,74524.5,1.15,-22.21,-22.37,0,*71
1536613454.86,41903,19.19,74522.0,1.15,-22.07,-22.27,0,*75
1536613456.07,41904,19.19,74520.8,1.15,-21.93,-22.07,0,*7E
1536613457.3,41905,19.19,74522.5,1.15,-21.97,-22.07,0,*7B
1536613458.54,41906,19.19,74526.5,1.15,-21.97,-22.11,0,*7F
1536613459.75,41907,19.19,74526.5,1.15,-22.11,-22.27,0,*76
1536613460.98,41908,19.19,74526.0,1.15,-22.21,-22.37,0,*7B
1536613462.24,41909,19.19,74524.0,1.13,-22.27,-22.31,0,*7C
1536613463.44,41910,19.19,74526.8,1.15,-22.27,-22.37,0,*74
1536613464.67,41911,19.19,74524.8,1.15,-22.11,-22.21,0,*77
1536613465.88,41912,19.19,74524.5,1.15,-22.11,-22.27,0,*72
1536613467.14,41913,19.19,74524.0,1.13,-22.27,-22.31,0,*77
1536613468.43,41914,19.19,74524.5,1.13,-22.31,-22.31,0,*77
1536613469.66,41915,19.19,74526.3,1.15,-22.11,-22.21,0,*73
1536613470.92,41916,19.19,74522.5,1.13,-22.03,-22.17,0,*70
1536613472.13,41917,19.19,74520.3,1.15,-22.11,-22.27,0,*77
1536613473.33,41918,19.19,74526.5,1.15,-22.27,-22.27,0,*7D
1536613474.56,41919,19.19,74522.8,1.15,-22.07,-22.21,0,*78
1536613475.8,41920,19.19,74522.3,1.15,-22.21,-22.27,0,*70
1536613477.02,41921,19.19,74522.5,1.13,-22.11,-22.41,0,*74
1536613478.23,41922,19.19,74520.8,1.15,-22.27,-22.41,0,*74
1536613479.49,41923,19.19,74520.3,1.13,-22.17,-22.27,0,*70
1536613480.71,41924,19.19,74520.5,1.13,-22.41,-22.41,0,*74
1536613481.94,41925,19.19,74522.8,1.13,-22.27,-22.41,0,*75
1536613483.23,41926,19.19,74522.0,1.13,-22.17,-22.47,0,*73
1536613484.46,41927,19.19,74522.8,1.13,-22.11,-22.27,0,*72
1536613485.75,41928,19.19,74520.5,1.13,-22.31,-22.47,0,*79
1536613487.01,41929,19.19,74526.8,1.13,-22.47,-22.57,0,*78
1536613488.28,41930,19.19,74524.5,1.13,-22.17,-22.27,0,*72
1536613489.57,41931,19.19,74526.3,1.13,-22.17,-22.31,0,*74
1536613490.8,41932,19.19,74526.5,1.13,-22.11,-22.27,0,*76
1536613492.06,41933,19.19,74524.0,1.13,-22.27,-22.31,0,*75
1536613493.32,41934,19.19,74526.8,1.11,-22.31,-22.31,0,*77
1536613494.52,41935,19.19,74522.5,1.11,-22.11,-22.11,0,*76
1536613495.76,41936,19.19,74526.3,1.11,-22.17,-22.27,0,*76
1536613496.99,41937,19.19,74520.3,1.11,-22.17,-22.27,0,*77
1536613498.23,41938,19.19,74524.3,1.11,-22.03,-22.17,0,*7E
1536613499.43,41939,19.19,74526.3,1.11,-22.11,-22.11,0,*7A
1536613500.67,41940,19.19,74524.5,1.11,-22.17,-22.27,0,*77
1536613501.87,41941,19.19,74520.3,1.11,-22.27,-22.41,0,*75
1536613503.1,41942,19.19,74526.0,1.11,-22.11,-22.17,0,*70
1536613504.34,41943,19.19,74528.0,1.11,-22.27,-22.47,0,*71
1536613505.54,41944,19.19,74522.3,1.11,-22.27,-22.41,0,*70
1536613506.77,41945,19.19,74528.0,1.09,-22.37,-22.53,0,*7A
1536613507.98,41946,19.19,74524.3,1.11,-22.11,-22.27,0,*77
1536613509.21,41947,19.19,74526.0,1.11,-22.03,-22.17,0,*76
1536613510.47,41948,19.19,74522.5,1.09,-22.37,-22.47,0,*72
1536613511.76,41949,19.19,74526.0,1.09,-22.21,-22.47,0,*74
1536613513.04,41950,19.19,74524.0,1.09,-22.17,-22.17,0,*7C
1536613514.32,41951,19.19,74522.0,1.09,-22.21,-22.21,0,*7D
1536613515.57,41952,19.19,74526.8,1.09,-22.21,-22.37,0,*79
1536613516.86,41953,19.19,74528.8,1.09,-22.31,-22.31,0,*7F
1536613518.11,41954,19.19,74524.0,1.09,-22.17,-22.37,0,*7A
1536613519.37,41955,19.19,74522.0,1.09,-22.47,-22.53,0,*7C
1536613520.66,41956,19.19,74526.3,1.09,-22.17,-22.31,0,*7E
1536613521.95,41957,19.19,74526.0,1.09,-22.17,-22.31,0,*7F
1536613523.2,41958,19.19,74526.0,1.09,-22.21,-22.37,0,*73
1536613524.48,41959,19.19,74526.5,1.09,-22.31,-22.47,0,*74
1536613525.72,41960,19.19,74524.5,1.09,-21.93,-22.07,0,*71
1536613526.94,41961,19.19,74528.0,1.07,-22.07,-22.11,0,*77
1536613528.17,41962,19.19,74524.0,1.07,-22.41,-22.41,0,*73
1536613529.42,41963,19.19,74520.8,1.07,-22.11,-22.21,0,*71
1536613530.66,41964,19.19,74520.0,1.07,-22.11,-22.27,0,*70
1536613531.89,41965,19.19,74522.0,1.07,-22.11,-22.27,0,*71
1536613533.14,41966,19.19,74526.3,1.09,-22.21,-22.37,0,*7E
1536613534.42,41967,19.19,74526.0,1.09,-22.21,-22.31,0,*79
1536613535.68,41968,19.19,74526.5,1.07,-22.11,-22.21,0,*7A
1536613536.91,41969,19.19,74526.8,1.07,-22.27,-22.37,0,*79
1536613538.14,41970,19.19,74524.5,1.07,-22.27,-22.41,0,*70
1536613539.34,41971,19.19,74524.0,1.05,-22.41,-22.41,0,*73
1536613540.6,41972,19.19,74522.8,1.07,-22.21,-22.27,0,*74
1536613541.82,41973,19.19,74520.5,1.07,-22.27,-22.41,0,*73
1536613543.08,41974,19.19,74524.3,1.07,-22.11,-22.21,0,*77
1536613544.34,41975,19.19,74526.0,1.07,-22.11,-22.21,0,*76
1536613545.59,41976,19.19,74528.3,1.07,-21.97,-22.07,0,*7C
1536613546.85,41977,19.19,74526.0,1.09,-21.87,-22.03,0,*76
1536613548.11,41978,19.19,74520.3,1.09,-21.87,-22.03,0,*79
1536613549.39,41979,19.19,74520.0,1.07,-21.83,-21.97,0,*7C
1536613550.62,41980,19.19,74516.8,1.07,-22.11,-22.41,0,*7A
1536613551.88,41981,19.19,74520.5,1.09,-22.37,-22.47,0,*77
1536613553.14,41982,19.19,74518.5,1.09,-22.47,-22.53,0,*76
1536613554.42,41983,19.19,74520.0,1.09,-22.31,-22.47,0,*73
1536613555.65,41984,19.19,74524.0,1.07,-22.27,-22.37,0,*7A
1536613556.91,41985,19.19,74524.5,1.07,-22.21,-22.41,0,*7C
1536613558.14,41986,19.19,74526.3,1.07,-22.07,-22.11,0,*7E
1536613559.36,41987,19.19,74520.5,1.07,-22.27,-22.41,0,*78
1536613560.56,41988,19.19,74522.5,1.05,-22.27,-22.41,0,*75
1536613561.76,41989,19.19,74520.0,1.05,-22.41,-22.41,0,*74
1536613562.98,41990,19.19,74518.3,1.07,-22.07,-22.11,0,*79
1536613564.23,41991,19.19,74520.5,1.07,-22.07,-22.21,0,*7B
1536613565.48,41992,19.19,74522.0,1.07,-22.07,-22.21,0,*78
1536613566.74,41993,19.19,74522.3,1.07,-22.21,-22.27,0,*7B
1536613567.98,41994,19.19,74520.5,1.07,-22.27,-22.27,0,*7A
1536613569.23,41995,19.19,74522.8,1.07,-22.11,-22.21,0,*78
1536613570.49,41996,19.19,74522.5,1.07,-21.93,-21.97,0,*7C
1536613571.73,41997,19.19,74520.8,1.07,-21.77,-21.93,0,*73
1536613572.96,41998,19.19,74522.0,1.05,-21.97,-22.11,0,*79
1536613574.21,41999,19.19,74520.3,1.07,-22.21,-22.37,0,*70
1536613575.41,42000,19.19,74520.8,1.05,-22.27,-22.41,0,*7F
1536613576.64,42001,19.19,74516.8,1.07,-22.07,-22.11,0,*7B
1536613577.87,42002,19.19,74520.3,1.07,-21.93,-22.07,0,*71
1536613579.11,42003,19.19,74520.5,1.07,-21.93,-22.07,0,*70
1536613580.31,42004,19.19,74524.3,1.05,-22.11,-22.11,0,*7B
1536613581.59,42005,19.19,74522.5,1.09,-22.21,-22.21,0,*76
1536613582.84,42006,19.19,74522.8,1.07,-22.07,-22.21,0,*7F
1536613584.1,42007,19.19,74522.0,1.07,-21.77,-21.97,0,*74
1536613585.33,42008,19.19,74520.5,1.07,-22.11,-22.11,0,*75
1536613586.61,42009,19.19,74524.3,1.09,-22.21,-22.21,0,*7A
1536613587.89,42010,19.19,74518.5,1.09,-22.21,-22.47,0,*72
1536613589.13,42011,19.19,74524.0,1.07,-22.37,-22.53,0,*7F
1536613590.39,42012,19.19,74522.8,1.07,-22.21,-22.37,0,*79
1536613591.62,42013,19.19,74522.3,1.05,-22.21,-22.27,0,*7B
1536613592.85,42014,19.19,74522.0,1.07,-22.27,-22.37,0,*79
1536613594.05,42015,19.19,74520.8,1.05,-22.27,-22.37,0,*7A
1536613595.3,42016,19.19,74522.8,1.07,-22.07,-22.21,0,*7E
1536613596.53,42017,19.19,74524.5,1.05,-22.11,-22.21,0,*7A
1536613597.76,42018,19.19,74524.8,1.07,-22.27,-22.37,0,*75
1536613598.99,42019,19.19,74522.8,1.07,-21.93,-22.07,0,*7B
1536613600.23,42020,19.19,74522.8,1.05,-22.21,-22.27,0,*7B
1536613601.48,42021,19.19,74522.0,1.07,-22.27,-22.21,0,*78
1536613602.74,42022,19.19,74526.3,1.07,-22.21,-22.37,0,*7A
1536613603.96,42023,19.19,74522.5,1.05,-22.11,-22.21,0,*7D
1536613605.25,42024,19.19,74520.3,1.07,-22.21,-22.21,0,*7B
1536613606.45,42025,19.19,74526.0,1.05,-22.07,-22.11,0,*7F
1536613607.68,42026,19.19,74522.8,1.07,-22.27,-22.37,0,*78
1536613608.9,42027,19.19,74520.8,1.05,-22.11,-22.21,0,*79
1536613610.16,42028,19.19,74522.8,1.07,-22.21,-22.37,0,*70
1536613611.36,42029,19.19,74524.8,1.05,-22.27,-22.27,0,*74
1536613612.6,42030,19.19,74520.8,1.07,-21.93,-22.11,0,*77
1536613613.83,42031,19.19,74520.5,1.07,-22.11,-22.27,0,*7A
1536613615.06,42032,19.19,74524.5,1.07,-22.27,-22.37,0,*7D
1536613616.32,42033,19.19,74526.0,1.07,-21.97,-22.11,0,*70
1536613617.55,42034,19.19,74522.5,1.05,-21.93,-21.97,0,*7C
1536613618.77,42035,19.19,74518.8,1.05,-22.07,-22.21,0,*7D
1536613620.02,42036,19.19,74520.0,1.05,-22.21,-22.21,0,*7A
1536613621.23,42037,19.19,74520.8,1.05,-22.11,-22.27,0,*7E
1536613622.42,42038,19.19,74520.5,1.05,-22.41,-22.41,0,*74
1536613623.62,42039,19.19,74524.0,1.05,-22.41,-22.41,0,*75
1536613624.84,42040,19.19,74522.5,1.05,-22.07,-22.21,0,*7F
1536613626.05,42041,19.19,74520.0,1.05,-22.27,-22.27,0,*7A
1536613627.27,42042,19.19,74520.3,1.05,-22.11,-22.21,0,*7A
1536613628.5,42043,19.19,74520.5,1.05,-22.11,-22.21,0,*7B
1536613629.72,42044,19.19,74524.0,1.05,-22.11,-22.21,0,*7C
1536613630.95,42045,19.19,74522.5,1.05,-22.21,-22.37,0,*79
1536613632.21,42046,19.19,74522.8,1.03,-22.31,-22.57,0,*7B
1536613633.46,42047,19.19,74520.0,1.03,-22.03,-22.17,0,*7F
1536613634.66,42048,19.19,74522.3,1.05,-22.11,-22.11,0,*73
1536613635.92,42049,19.19,74522.5,1.03,-22.17,-22.27,0,*77
1536613637.15,42050,19.19,74520.3,1.03,-22.27,-22.27,0,*7C
1536613638.38,42051,19.19,74522.8,1.03,-22.27,-22.27,0,*7D
1536613639.64,42052,19.19,74522.3,1.03,-22.17,-22.27,0,*7D
1536613640.92,42053,19.19,74522.5,1.03,-22.47,-22.47,0,*7F
1536613642.18,42054,19.19,74522.3,1.03,-22.27,-22.31,0,*7F
1536613643.44,42055,19.19,74526.0,1.03,-22.17,-22.27,0,*7A
1536613644.69,42056,19.19,74522.8,1.03,-22.27,-22.31,0,*7D
1536613645.91,42057,19.19,74526.8,1.03,-22.27,-22.41,0,*7B
1536613647.17,42058,19.19,74524.0,1.03,-22.11,-22.17,0,*72
1536613648.45,42059,19.19,74526.0,1.03,-22.31,-22.31,0,*75
1536613649.71,42060,19.19,74524.8,1.03,-22.41,-22.47,0,*79
1536613650.94,42061,19.19,74524.0,1.03,-22.11,-22.27,0,*7B
1536613652.14,42062,19.19,74524.0,1.01,-22.11,-22.27,0,*7A
1536613653.36,42063,19.19,74522.8,1.03,-22.03,-22.11,0,*7F
1536613654.62,42064,19.19,74522.8,1.03,-22.03,-22.17,0,*7E
1536613655.84,42065,19.19,74516.0,1.01,-21.97,-22.11,0,*75
1536613657.08,42066,19.19,74520.0,1.01,-22.11,-22.17,0,*7D
1536613658.3,42067,19.19,74522.3,1.01,-22.31,-22.41,0,*7D
1536613659.55,42068,19.19,74520.8,1.01,-21.83,-21.97,0,*70
1536613660.81,42069,19.19,74520.8,1.03,-22.17,-22.27,0,*75
1536613662.04,42070,19.19,74520.5,1.03,-22.11,-22.27,0,*7B
1536613663.32,42071,19.19,74522.0,1.03,-22.31,-22.31,0,*7F
1536613664.51,42072,19.19,74522.0,1.01,-22.27,-22.41,0,*7E
1536613665.72,42073,19.19,74520.3,1.01,-22.11,-22.27,0,*7A
1536613666.95,42074,19.19,74524.5,1.01,-22.17,-22.27,0,*7B
1536613668.18,42075,19.19,74522.8,1.01,-21.97,-22.11,0,*74
1536613669.43,42076,19.19,74522.3,1.03,-21.97,-22.03,0,*76
1536613670.69,42077,19.19,74526.0,1.01,-22.31,-22.31,0,*7B
1536613671.92,42078,19.19,74520.0,1.01,-22.17,-22.27,0,*77
1536613673.12,42079,19.19,74522.5,1.01,-22.27,-22.27,0,*75
1536613674.35,42080,19.19,74520.0,1.01,-21.97,-22.03,0,*7D
1536613675.58,42081,19.19,74522.8,1.03,-22.27,-22.27,0,*70
1536613676.78,42082,19.19,74526.5,1.01,-22.27,-22.27,0,*71
1536613678.01,42083,19.19,74522.3,1.03,-22.11,-22.27,0,*77
1536613679.21,42084,19.19,74524.8,1.01,-22.11,-22.27,0,*72
1536613680.44,42085,19.19,74522.0,1.01,-22.11,-22.17,0,*70
1536613681.67,42086,19.19,74520.3,1.01,-22.03,-22.17,0,*70
1536613682.91,42087,19.19,74522.8,1.01,-22.11,-22.17,0,*72
1536613684.16,42088,19.19,74522.8,1.01,-21.83,-21.97,0,*7E
1536613685.36,42089,19.19,74522.5,1.01,-22.03,-22.11,0,*79
1536613686.56,42090,19.19,74522.3,1.01,-22.03,-22.03,0,*72
1536613687.82,42091,19.19,74524.0,1.03,-22.11,-22.17,0,*77
1536613689.04,42092,19.19,74520.8,1.01,-21.97,-22.03,0,*7E
1536613690.27,42093,19.19,74524.3,1.01,-21.87,-22.03,0,*7E
1536613691.54,42094,19.19,74520.8,1.01,-22.17,-22.17,0,*76
1536613692.82,42095,19.19,74522.8,1.03,-21.83,-21.87,0,*71
1536613694.1,42096,19.19,74520.8,1.03,-21.97,-22.17,0,*7D
1536613695.33,42097,19.19,74524.0,1.01,-22.03,-22.17,0,*70
1536613696.59,42098,19.19,74524.5,1.03,-21.87,-22.03,0,*77
1536613697.84,42099,19.19,74524.0,1.03,-21.87,-22.03,0,*76
1536613699.09,42100,19.19,74524.0,1.01,-21.97,-21.97,0,*7A
1536613700.38,42101,19.19,74526.0,1.03,-21.87,-21.87,0,*79
1536613701.61,42102,19.19,74520.3,1.01,-22.27,-22.17,0,*7B
1536613702.84,42103,19.19,74526.3,1.03,-22.27,-22.27,0,*7B
1536613704.06,42104,19.19,74522.0,1.01,-22.31,-22.41,0,*79
1536613705.3,42105,19.19,74526.3,1.01,-22.17,-22.27,0,*7C